M I D A S
Marine Information and Data Acquisition System
Tripno 1752 of the Zeeleeuw from 2009-08-21 06:43:00 to 2009-08-21 13:53:53
Back to CruiseResearch ActivitiesStationsMapUnderway DataData graphs

EquipmentUnitsComment
TimeDGPSUTC
LatitudeDGPSDM.mWGS84
LongitudeDGPSDM.mWGS84
HeadingGyrodeg 
SOGDGPSknotsSpeed over ground
COGDGPSdegCourse over ground
DepthEcho soundermeters200 kHz
Missing or incorrect values are displayed as -999
Navigation data collected by the RV Zeeleeuw from 2009-08-21 06:43:00 to 2009-08-21 13:53:53
Time Latitude Longitude Heading SOG COG Depth
2009-08-21 06:45:10 51°13.688 2°55.905 124.5 0.1 189 -999
2009-08-21 06:47:10 51°13.692 2°55.876 110.4 2.2 290 -999
2009-08-21 06:49:10 51°13.709 2°55.73 78.2 1.1 280 -999
2009-08-21 06:51:10 51°13.791 2°55.676 328.3 5.79 328 -999
2009-08-21 06:53:10 51°14.032 2°55.483 336.3 8.5 335 -999
2009-08-21 06:55:10 51°14.276 2°55.22 318.1 9.3 315 -999
2009-08-21 06:57:10 51°14.522 2°54.86 327.8 10.19 321 -999
2009-08-21 06:59:10 51°14.802 2°54.574 336.1 9.9 329 -999
2009-08-21 07:01:10 51°15.083 2°54.309 336.1 9.8 330 -999
2009-08-21 07:03:10 51°15.365 2°54.042 335.3 9.9 329 -999
2009-08-21 07:05:10 51°15.65 2°53.764 335.1 10.3 328 -999
2009-08-21 07:07:10 51°15.966 2°53.454 335.5 11.19 328 -999
2009-08-21 07:09:10 51°16.284 2°53.136 335.6 11.3 328 -999
2009-08-21 07:11:10 51°16.602 2°52.818 334.6 11.09 327 -999
2009-08-21 07:13:10 51°16.913 2°52.53 335.5 10.8 330 -999
2009-08-21 07:15:10 51°17.233 2°52.291 345.6 10.5 340 -999
2009-08-21 07:17:10 51°17.57 2°52.169 1 10 3 -999
2009-08-21 07:19:10 51°17.886 2°52.324 20.5 10.09 19 -999
2009-08-21 07:21:10 51°18.215 2°52.456 17.3 10.19 13 -999
2009-08-21 07:23:10 51°18.541 2°52.585 19 10 17 -999
2009-08-21 07:25:10 51°18.865 2°52.73 19.6 10.09 16 -999
2009-08-21 07:27:10 51°19.189 2°52.869 19.8 10.3 11 -999
2009-08-21 07:29:10 51°19.519 2°53.003 18.5 10.09 13 -999
2009-08-21 07:31:10 51°19.839 2°53.148 19.6 10 12 -999
2009-08-21 07:33:10 51°20.157 2°53.318 24.1 9.9 21 -999
2009-08-21 07:35:10 51°20.469 2°53.485 24 10 19 -999
2009-08-21 07:37:10 51°20.785 2°53.654 25.5 10 16 -999
2009-08-21 07:39:10 51°21.097 2°53.816 24.3 9.8 19 -999
2009-08-21 07:41:10 51°21.411 2°53.974 24.3 9.9 18 -999
2009-08-21 07:43:10 51°21.681 2°54.23 43.1 9.5 30 -999
2009-08-21 07:45:10 51°21.929 2°54.557 45.8 9.59 36 -999
2009-08-21 07:47:10 51°22.155 2°54.915 48.7 9.59 52 -999
2009-08-21 07:49:10 51°22.438 2°55.149 26.1 9.8 23 -999
2009-08-21 07:51:10 51°22.763 2°55.243 17.5 10 14 -999
2009-08-21 07:53:10 51°23.087 2°55.352 18.8 9.9 16 -999
2009-08-21 07:55:10 51°23.403 2°55.48 21.8 9.9 13 -999
2009-08-21 07:57:10 51°23.723 2°55.617 20.8 9.9 15 -999
2009-08-21 07:59:10 51°24.031 2°55.779 25.5 9.8 19 -999
2009-08-21 08:01:10 51°24.344 2°55.939 24.8 9.9 21 -999
2009-08-21 08:03:10 51°24.663 2°56.074 21.3 9.9 17 -999
2009-08-21 08:05:10 51°24.987 2°56.21 23.8 9.9 11 -999
2009-08-21 08:07:10 51°25.28 2°56.337 21 7.09 12 -999
2009-08-21 08:09:10 51°25.589 2°56.483 21.8 9.9 20 -999
2009-08-21 08:11:10 51°25.914 2°56.617 18.6 10.09 16 -999
2009-08-21 08:13:10 51°26.232 2°56.741 19.3 9.9 11 -999
2009-08-21 08:15:10 51°26.554 2°56.87 20.8 9.8 10 -999
2009-08-21 08:17:10 51°26.873 2°56.982 18.6 9.69 14 -999
2009-08-21 08:19:10 51°27.18 2°57.085 20.1 9.59 11 -999
2009-08-21 08:21:10 51°27.503 2°57.184 19.3 10.09 14 -999
2009-08-21 08:23:10 51°27.826 2°57.285 19.3 9.9 10 -999
2009-08-21 08:25:10 51°28.155 2°57.393 19.1 10 13 -999
2009-08-21 08:27:10 51°28.477 2°57.493 19.8 9.69 14 -999
2009-08-21 08:29:10 51°28.795 2°57.608 21.8 9.8 12 -999
2009-08-21 08:31:10 51°29.106 2°57.745 23.6 9.69 12 -999
2009-08-21 08:33:10 51°29.423 2°57.876 22.6 9.8 16 -999
2009-08-21 08:35:10 51°29.738 2°58.018 23.8 9.9 18 -999
2009-08-21 08:37:10 51°30.057 2°58.154 22.3 9.9 15 -999
2009-08-21 08:39:10 51°30.376 2°58.299 23.3 10.09 18 -999
2009-08-21 08:41:10 51°30.702 2°58.445 25.1 10.09 12 -999
2009-08-21 08:43:10 51°31.018 2°58.599 22.1 9.8 16 -999
2009-08-21 08:45:10 51°31.324 2°58.743 23.6 9.59 17 -999
2009-08-21 08:47:10 51°31.634 2°58.889 23.3 9.59 13 -999
2009-08-21 08:49:10 51°31.942 2°59.034 22.3 9.69 18 -999
2009-08-21 08:51:10 51°32.252 2°59.163 21 9.9 10 -999
2009-08-21 08:53:10 51°32.58 2°59.259 18.3 10.09 8 -999
2009-08-21 08:55:10 51°32.918 2°59.204 352.8 10.5 343 -999
2009-08-21 08:57:10 51°33.242 2°59.05 349.8 10.19 344 -999
2009-08-21 08:59:10 51°33.564 2°58.903 352.8 10.19 341 -999
2009-08-21 09:01:10 51°33.893 2°58.754 352.6 10.3 340 -999
2009-08-21 09:03:10 51°34.215 2°58.572 349.8 10.19 339 -999
2009-08-21 09:05:10 51°34.535 2°58.386 350 10.19 338 -999
2009-08-21 09:07:10 51°34.853 2°58.189 348.8 10.19 340 -999
2009-08-21 09:09:10 51°35.171 2°57.99 350.3 10.4 339 -999
2009-08-21 09:11:10 51°35.493 2°57.794 350.6 10.5 340 -999
2009-08-21 09:13:10 51°35.575 2°57.237 268.1 12.5 257 -999
2009-08-21 09:15:10 51°35.351 2°56.645 238.5 13.09 235 -999
2009-08-21 09:17:10 51°35.099 2°56.081 237.8 12.9 234 -999
2009-08-21 09:19:10 51°34.851 2°55.518 237.8 12.9 237 -999
2009-08-21 09:21:10 51°34.606 2°54.951 237.8 13 237 -999
2009-08-21 09:23:10 51°34.363 2°54.385 238 13 235 -999
2009-08-21 09:25:10 51°34.117 2°53.806 238.4 13 236 -999
2009-08-21 09:27:10 51°33.886 2°53.217 241.6 13.09 238 -999
2009-08-21 09:29:10 51°33.993 2°52.704 337.3 10.69 323 -999
2009-08-21 09:31:10 51°34.269 2°52.312 329.6 11 316 -999
2009-08-21 09:33:10 51°34.547 2°51.919 330.6 11.09 318 -999
2009-08-21 09:35:10 51°34.831 2°51.547 330.3 11 321 -999
2009-08-21 09:37:10 51°35.119 2°51.189 329.8 11 324 -999
2009-08-21 09:39:10 51°35.409 2°50.916 353.1 9.5 358 -999
2009-08-21 09:41:10 51°35.624 2°51.301 50.7 10 45 -999
2009-08-21 09:43:10 51°35.837 2°51.715 50.1 10.09 49 -999
2009-08-21 09:45:10 51°36.044 2°52.124 50.8 10 43 -999
2009-08-21 09:47:10 51°36.253 2°52.543 50 10 51 -999
2009-08-21 09:49:10 51°36.46 2°52.957 50.8 10 53 -999
2009-08-21 09:51:10 51°36.669 2°53.369 46.6 10.09 56 -999
2009-08-21 09:53:10 51°36.877 2°53.784 49.6 10.09 53 -999
2009-08-21 09:55:10 51°37.079 2°54.196 49.3 10.19 56 -999
2009-08-21 09:57:10 51°37.351 2°54.398 359.3 9.9 352 -999
2009-08-21 09:59:10 51°37.637 2°54.263 351.5 10.19 342 -999
2009-08-21 10:01:10 51°37.93 2°53.947 328.8 10.59 323 -999
2009-08-21 10:03:10 51°38.21 2°53.586 329.6 10.8 319 -999
2009-08-21 10:05:10 51°38.485 2°53.203 325.3 10.9 320 -999
2009-08-21 10:07:10 51°38.748 2°52.798 325.1 11.09 317 -999
2009-08-21 10:09:10 51°39.012 2°52.396 324.8 11 316 -999
2009-08-21 10:11:10 51°39.275 2°52.001 326.1 10.9 318 -999
2009-08-21 10:13:10 51°39.543 2°51.597 325.5 11.09 317 -999
2009-08-21 10:15:10 51°39.774 2°51.159 307.1 11 291 -999
2009-08-21 10:17:10 51°39.534 2°50.701 210.8 12.59 209 -999
2009-08-21 10:19:10 51°39.163 2°50.377 209.1 12.69 208 -999
2009-08-21 10:21:10 51°38.793 2°50.051 210.4 12.8 211 -999
2009-08-21 10:23:10 51°38.428 2°49.724 210 12.59 207 -999
2009-08-21 10:25:10 51°38.055 2°49.397 210.5 12.8 210 -999
2009-08-21 10:27:10 51°37.685 2°49.076 210.4 12.59 208 -999
2009-08-21 10:29:10 51°37.318 2°48.751 210 12.59 211 -999
2009-08-21 10:31:10 51°36.948 2°48.42 210.9 12.8 209 -999
2009-08-21 10:33:10 51°36.578 2°48.09 210.4 12.59 209 -999
2009-08-21 10:35:10 51°36.208 2°47.764 210 12.8 207 -999
2009-08-21 10:37:10 51°35.841 2°47.441 209.8 12.69 209 -999
2009-08-21 10:39:10 51°35.447 2°47.232 187.5 12.3 188 -999
2009-08-21 10:41:10 51°35.037 2°47.215 182.5 12.4 180 -999
2009-08-21 10:43:10 51°34.623 2°47.17 185.1 12.4 179 -999
2009-08-21 10:45:10 51°34.213 2°47.152 180 12.3 181 -999
2009-08-21 10:47:10 51°33.805 2°47.144 180.6 12.19 179 -999
2009-08-21 10:49:10 51°33.401 2°47.138 179.6 12 183 -999
2009-08-21 10:51:10 51°32.999 2°47.136 179.9 12 180 -999
2009-08-21 10:53:10 51°32.599 2°47.128 180.9 12 178 -999
2009-08-21 10:55:10 51°32.197 2°47.118 180 12 179 -999
2009-08-21 10:57:10 51°31.8 2°47.152 172 11.9 173 -999
2009-08-21 10:59:10 51°31.402 2°47.227 172 12.19 172 -999
2009-08-21 11:01:10 51°31.105 2°47.519 113.5 11.19 108 -999
2009-08-21 11:03:10 51°31.246 2°48.001 58.1 9.8 57 -999
2009-08-21 11:05:10 51°31.434 2°48.49 57.1 11 58 -999
2009-08-21 11:07:10 51°31.62 2°48.989 57.5 11 56 -999
2009-08-21 11:09:10 51°31.802 2°49.489 55.3 10.8 64 -999
2009-08-21 11:11:10 51°31.984 2°49.982 58.2 10.9 55 -999
2009-08-21 11:13:10 51°32.167 2°50.483 55.6 10.9 64 -999
2009-08-21 11:15:10 51°32.348 2°50.988 57.7 11 61 -999
2009-08-21 11:17:10 51°32.532 2°51.487 57.6 10.9 56 -999
2009-08-21 11:19:10 51°32.717 2°51.988 58.2 11.09 58 -999
2009-08-21 11:21:10 51°32.907 2°52.503 58.2 11.09 55 -999
2009-08-21 11:23:10 51°33.095 2°53.016 58 11.3 60 -999
2009-08-21 11:25:10 51°33.285 2°53.529 57.7 11.19 53 -999
2009-08-21 11:27:10 51°33.48 2°54.043 57 11.3 62 -999
2009-08-21 11:29:10 51°33.686 2°54.546 53.7 11.19 54 -999
2009-08-21 11:31:10 51°33.903 2°55.04 51.8 11.4 58 -999
2009-08-21 11:33:10 51°34.125 2°55.531 53.5 11.3 54 -999
2009-08-21 11:35:10 51°34.153 2°56.05 123.2 11.4 118 -999
2009-08-21 11:37:10 51°33.945 2°56.587 123.5 11.69 126 -999
2009-08-21 11:39:10 51°33.73 2°57.117 123.9 11.9 122 -999
2009-08-21 11:41:10 51°33.512 2°57.647 125.2 11.8 120 -999
2009-08-21 11:43:10 51°33.288 2°58.178 124 12 126 -999
2009-08-21 11:45:10 51°33.07 2°58.724 122.5 12.19 124 -999
2009-08-21 11:47:10 51°32.845 2°59.279 127.5 12.3 128 -999
2009-08-21 11:49:10 51°32.516 2°59.282 216.8 10.09 215 -999
2009-08-21 11:51:10 51°32.283 2°58.886 234.8 10.3 229 -999
2009-08-21 11:53:10 51°32.062 2°58.478 234.5 10.09 229 -999
2009-08-21 11:55:10 51°31.843 2°58.067 235 10.09 229 -999
2009-08-21 11:57:10 51°31.62 2°57.668 229.5 10 225 -999
2009-08-21 11:59:10 51°31.37 2°57.315 227.3 10 220 -999
2009-08-21 13:01:10 51°24.036 2°51.436 184.6 10.19 174 -999
2009-08-21 13:03:10 51°23.7 2°51.483 183.5 9.9 176 -999
2009-08-21 13:05:10 51°23.364 2°51.522 184 9.9 178 -999
2009-08-21 13:07:10 51°23.029 2°51.575 184.1 10.09 174 -999
2009-08-21 13:09:10 51°22.691 2°51.643 184.5 10.19 175 -999
2009-08-21 13:11:10 51°22.355 2°51.706 184.9 10.09 175 -999
2009-08-21 13:13:10 51°22.031 2°51.774 184.5 9.8 170 -999
2009-08-21 13:15:10 51°21.704 2°51.841 184.1 9.9 172 -999
2009-08-21 13:17:10 51°21.373 2°51.899 186.3 10 173 -999
2009-08-21 13:19:10 51°21.041 2°51.943 186.5 10.19 177 -999
2009-08-21 13:21:10 51°20.705 2°51.977 187 10.19 176 -999
2009-08-21 13:23:10 51°20.365 2°51.998 186.1 10.3 178 -999
2009-08-21 13:25:10 51°20.021 2°52.013 187.3 10.3 177 -999
2009-08-21 13:27:10 51°19.676 2°52.034 186.1 10.19 177 -999
2009-08-21 13:29:10 51°19.338 2°52.065 185.8 10.19 175 -999
2009-08-21 13:31:10 51°19.007 2°52.086 187 10 179 -999
2009-08-21 13:33:10 51°18.672 2°52.12 183.9 10 179 -999
2009-08-21 13:35:10 51°18.335 2°52.148 183.3 10 178 -999
2009-08-21 13:37:10 51°17.999 2°52.176 184.5 10 177 -999
2009-08-21 13:39:10 51°17.662 2°52.206 182.1 10.19 175 -999
2009-08-21 13:41:10 51°17.331 2°52.322 167.4 10.5 157 -999
2009-08-21 13:43:10 51°17.008 2°52.55 163.4 10.5 159 -999
2009-08-21 13:45:10 51°16.685 2°52.79 161.8 10.9 148 -999
2009-08-21 13:47:10 51°16.37 2°53.093 157.9 11.09 148 -999
2009-08-21 13:49:10 51°16.053 2°53.394 157.5 11 152 -999
2009-08-21 13:51:10 51°15.732 2°53.682 158.8 10.9 156 -999
2009-08-21 13:53:10 51°15.407 2°53.957 158.6 11 154 -999